Canby, MN

7:34 AM CDT on March 28, 2017 (GMT -0500)
Canby

Weather History for KCNB - July, 2013

Change the Weather History Date:

Sunday, July 14, 2013

  Actual Average (KMML) Record (KMML)
Temperature  
Mean Temperature 70 °F -  
Max Temperature 74 °F 83 °F 102 °F (1974)
Min Temperature 67 °F 61 °F 47 °F (1990)
Cooling Degree Days 6    
Growing Degree Days 20 (Base 50)    
Moisture  
Dew Point 67 °F    
Average Humidity 92    
Maximum Humidity 97    
Minimum Humidity 79    
Precipitation  
Precipitation 2.19 in - - ()
Sea Level Pressure  
Sea Level Pressure 30.09 in    
Wind  
Wind Speed 5 mph (SSE)    
Max Wind Speed 13 mph    
Max Gust Speed 17 mph    
Visibility 7 miles    
Events Rain , Thunderstorm    
Averages and records for this station are not official NWS values.
T = Trace of Precipitation, MM = Missing Value Source: NWS Daily Summary

Daily Weather History Graph

Daily Weather History Graph

Search for Another Location

Airport or City:

Trip Planner

Search our weather history database for the weather conditions in past years. The results will help you decide how hot, cold, wet, or windy it might be!

Date:

Astronomy

Jul. 14, 2013 Rise Set
Actual Time 5:52 AM CDT 9:08 PM CDT
Civil Twilight 5:17 AM CDT 9:44 PM CDT
Nautical Twilight 4:30 AM CDT 10:30 PM CDT
Astronomical Twilight 3:33 AM CDT 11:27 PM CDT
Moon 12:29 PM CDT (7/14) No Moon Set
Length of Visible Light 16h 26m
Length of Day
15h 15m
Waxing Crescent, 35% of the Moon is Illuminated
Jul 14
Waxing Crescent
Jul 15
First Quarter
Jul 22
Full
Jul 29
Last Quarter
Aug 6
New

Hourly Weather History & Observations

Time (CDT) Temp. Dew Point Humidity Pressure Visibility Wind Dir Wind Speed Gust Speed Precip Events Conditions
12:14 AM 72.7 °F 68.9 °F 88% 30.00 in 10.0 mi ESE 4.6 mph - N/A   Mostly Cloudy
12:34 AM 72.5 °F 68.9 °F 88% 30.00 in 10.0 mi ESE 4.6 mph - N/A   Mostly Cloudy
12:55 AM 71.6 °F 68.5 °F 90% 30.01 in 10.0 mi ESE 3.5 mph - N/A   Scattered Clouds
1:14 AM 71.1 °F 68.5 °F 92% 30.01 in 10.0 mi ESE 3.5 mph - N/A   Scattered Clouds
1:34 AM 71.6 °F 68.5 °F 90% 30.01 in 10.0 mi SE 5.8 mph - N/A   Mostly Cloudy
1:55 AM 71.1 °F 68.4 °F 91% 30.00 in 10.0 mi SE 5.8 mph - N/A   Scattered Clouds
2:14 AM 71.2 °F 68.4 °F 91% 30.00 in 10.0 mi SSE 6.9 mph - N/A   Clear
2:34 AM 71.6 °F 68.4 °F 89% 29.99 in 10.0 mi SSE 6.9 mph - N/A   Clear
2:55 AM 71.6 °F 68.2 °F 89% 29.98 in 10.0 mi SE 5.8 mph - N/A   Clear
3:14 AM 71.6 °F 68.0 °F 88% 29.97 in 10.0 mi ESE 5.8 mph - N/A   Scattered Clouds
3:34 AM 71.2 °F 67.8 °F 89% 29.97 in 10.0 mi SE 5.8 mph - N/A   Scattered Clouds
3:55 AM 71.6 °F 67.6 °F 87% 29.98 in 10.0 mi Calm Calm - N/A   Scattered Clouds
4:14 AM 71.1 °F 68.0 °F 90% 29.98 in 10.0 mi ESE 6.9 mph - N/A   Mostly Cloudy
4:35 AM 71.6 °F 67.5 °F 87% 30.00 in 10.0 mi ESE 6.9 mph - N/A Thunderstorm Mostly Cloudy
4:54 AM 71.6 °F 67.1 °F 86% 30.00 in 10.0 mi ESE 8.1 mph - N/A Rain , Thunderstorm Light Thunderstorms and Rain
5:14 AM 70.2 °F 67.3 °F 91% 30.02 in 10.0 mi SE 12.7 mph - 0.01 in Rain , Thunderstorm Light Thunderstorms and Rain
5:34 AM 70.2 °F 67.6 °F 92% 30.03 in 2.0 mi SSE 12.7 mph 17.3 mph 0.39 in Rain , Thunderstorm Heavy Thunderstorms and Rain
5:54 AM 69.8 °F 68.0 °F 94% 30.03 in 2.5 mi SSW 6.9 mph - 0.72 in Rain , Thunderstorm Heavy Thunderstorms and Rain
6:15 AM 69.3 °F 68.0 °F 96% 30.03 in 2.0 mi South 5.8 mph - 0.26 in Rain Heavy Rain
6:34 AM 69.3 °F 68.0 °F 96% 30.03 in 2.0 mi Calm Calm - 0.47 in Rain Heavy Rain
6:55 AM 69.3 °F 68.0 °F 96% 30.04 in 7.0 mi Calm Calm - 0.49 in Rain , Thunderstorm Rain
7:14 AM 69.4 °F 68.2 °F 96% 30.05 in 5.0 mi Calm Calm - 0.01 in Rain , Thunderstorm Rain
7:34 AM 69.4 °F 68.0 °F 95% 30.06 in 5.0 mi SE 4.6 mph - 0.06 in Rain Heavy Rain
7:55 AM 69.3 °F 68.0 °F 96% 30.06 in 4.0 mi Calm Calm - 0.12 in Rain Rain
8:14 AM 69.3 °F 68.2 °F 96% 30.06 in 2.0 mi ESE 5.8 mph - 0.04 in Rain Rain
8:34 AM 68.9 °F 67.6 °F 96% 30.06 in 2.5 mi SE 8.1 mph - 0.08 in Rain , Thunderstorm Thunderstorms and Rain
8:54 AM 68.7 °F 67.5 °F 96% 30.07 in 4.0 mi SSE 3.5 mph - 0.11 in Rain , Thunderstorm Thunderstorms and Rain
9:15 AM 68.4 °F 67.3 °F 96% 30.08 in 4.0 mi SSE 4.6 mph - 0.14 in Rain Light Rain
9:34 AM 68.4 °F 67.3 °F 96% 30.09 in 1.8 mi SSE 4.6 mph - 0.21 in Rain , Thunderstorm Heavy Thunderstorms and Rain
9:54 AM 68.2 °F 67.1 °F 96% 30.10 in 1.2 mi SSE 8.1 mph - 0.42 in Rain , Thunderstorm Heavy Thunderstorms and Rain
10:15 AM 68.0 °F 66.7 °F 96% 30.09 in 2.0 mi SE 10.4 mph - 0.07 in Rain , Thunderstorm Rain
10:34 AM 67.3 °F 66.2 °F 96% 30.09 in 4.0 mi SSE 8.1 mph - 0.11 in Rain , Thunderstorm Thunderstorms and Rain
10:54 AM 67.3 °F 66.2 °F 96% 30.08 in 3.0 mi SE 6.9 mph - 0.16 in Rain Heavy Rain
11:14 AM 68.0 °F 66.7 °F 96% 30.07 in 4.0 mi South 4.6 mph - 0.04 in Rain Rain
11:34 AM 68.9 °F 67.8 °F 96% 30.08 in 5.0 mi SSE 9.2 mph - 0.06 in Rain Light Rain
11:55 AM 68.9 °F 68.0 °F 97% 30.10 in 5.0 mi ESE 6.9 mph - 0.07 in   Overcast
12:14 PM 69.1 °F 67.8 °F 96% 30.10 in 7.0 mi SE 5.8 mph - 0.01 in Rain Light Rain
12:35 PM 68.0 °F 65.7 °F 92% 30.11 in 5.0 mi South 6.9 mph - 0.05 in Rain Rain
12:54 PM 67.5 °F 65.5 °F 93% 30.12 in 5.0 mi SSE 4.6 mph - 0.08 in Rain Rain
1:14 PM 68.0 °F 65.7 °F 92% 30.12 in 7.0 mi SSE 3.5 mph - 0.01 in Rain Light Rain
1:35 PM 68.9 °F 66.6 °F 92% 30.12 in 10.0 mi South 3.5 mph - 0.01 in Rain Light Rain
1:54 PM 69.8 °F 67.5 °F 92% 30.12 in 10.0 mi SW 5.8 mph - 0.01 in Rain Light Rain
2:14 PM 69.8 °F 67.3 °F 92% 30.12 in 10.0 mi South 4.6 mph - 0.01 in Rain Light Rain
2:35 PM 68.9 °F 66.0 °F 90% 30.14 in 10.0 mi South 6.9 mph - 0.01 in   Overcast
2:54 PM 68.4 °F 65.7 °F 91% 30.13 in 10.0 mi SSW 3.5 mph - 0.01 in Rain Light Rain
3:14 PM 68.9 °F 65.3 °F 88% 30.13 in 10.0 mi South 4.6 mph - N/A   Overcast
3:35 PM 69.3 °F 65.7 °F 88% 30.14 in 10.0 mi Calm Calm - N/A Rain Light Rain
3:54 PM 70.7 °F 65.8 °F 85% 30.14 in 10.0 mi SSW 4.6 mph - N/A   Mostly Cloudy
4:14 PM 73.0 °F 66.9 °F 81% 30.13 in 10.0 mi South 6.9 mph - N/A   Scattered Clouds
4:35 PM 73.4 °F 67.3 °F 81% 30.13 in 10.0 mi South 5.8 mph - N/A   Mostly Cloudy
4:54 PM 74.1 °F 67.1 °F 79% 30.14 in 10.0 mi South 5.8 mph - N/A   Mostly Cloudy
5:14 PM 72.5 °F 66.9 °F 83% 30.15 in 10.0 mi SSE 9.2 mph - N/A   Mostly Cloudy
5:35 PM 70.7 °F 66.6 °F 87% 30.15 in 10.0 mi South 9.2 mph - N/A   Overcast
5:54 PM 70.2 °F 66.4 °F 88% 30.15 in 10.0 mi SSW 10.4 mph - N/A   Overcast
6:14 PM 70.0 °F 65.7 °F 86% 30.14 in 7.0 mi SSW 8.1 mph - N/A   Overcast
6:34 PM 70.9 °F 66.2 °F 85% 30.14 in 10.0 mi SW 3.5 mph - N/A   Overcast
6:55 PM 70.0 °F 66.6 °F 89% 30.14 in 10.0 mi SSW 6.9 mph - N/A Rain Light Rain
7:14 PM 70.3 °F 67.1 °F 89% 30.13 in 10.0 mi SSW 5.8 mph - N/A   Drizzle
7:34 PM 70.9 °F 67.1 °F 88% 30.12 in 10.0 mi South 6.9 mph - N/A   Light Drizzle
7:55 PM 72.0 °F 67.5 °F 86% 30.13 in 10.0 mi ESE 4.6 mph - N/A   Mostly Cloudy
8:14 PM 71.1 °F 68.0 °F 90% 30.14 in 10.0 mi ESE 4.6 mph - N/A   Scattered Clouds
8:35 PM 70.2 °F 68.0 °F 93% 30.14 in 7.0 mi East 5.8 mph - N/A   Mostly Cloudy
8:54 PM 69.8 °F 68.0 °F 94% 30.15 in 7.0 mi SE 3.5 mph - N/A   Overcast
9:14 PM 69.3 °F 67.6 °F 95% 30.15 in 5.0 mi ESE 5.8 mph - N/A   Overcast
9:34 PM 69.1 °F 67.6 °F 95% 30.15 in 5.0 mi SE 5.8 mph - N/A   Overcast
9:55 PM 68.5 °F 67.3 °F 96% 30.17 in 5.0 mi SE 4.6 mph - N/A   Overcast
10:14 PM 68.5 °F 67.3 °F 96% 30.17 in 5.0 mi SE 3.5 mph - N/A   Overcast
10:34 PM 68.4 °F 67.3 °F 96% 30.18 in 5.0 mi ESE 4.6 mph - N/A   Overcast
10:55 PM 68.4 °F 67.3 °F 96% 30.18 in 5.0 mi SE 3.5 mph - N/A   Overcast
11:14 PM 68.2 °F 67.1 °F 96% 30.19 in 4.0 mi ESE 3.5 mph - N/A   Scattered Clouds
11:35 PM 68.0 °F 67.1 °F 97% 30.19 in 4.0 mi SE 4.6 mph - N/A   Scattered Clouds
11:54 PM 68.2 °F 67.1 °F 96% 30.19 in 5.0 mi SSE 4.6 mph - N/A   Overcast